TimeEST,TemperatureF,Dew PointF,Humidity,Sea Level PressureIn,VisibilityMPH,Wind Direction,Wind SpeedMPH,Gust SpeedMPH,PrecipitationIn,Events,Conditions,WindDirDegrees,DateUTC
12:53 AM,39.0,37.0,93,30.00,4.0,Calm,Calm,-,N/A,,Overcast,0,2012-12-08 05:53:00
1:53 AM,39.0,37.0,93,29.99,2.5,Calm,Calm,-,0.02,Rain,Light Rain,0,2012-12-08 06:53:00
2:04 AM,39.2,37.4,93,29.99,3.0,Calm,Calm,-,0.00,Rain,Light Rain,0,2012-12-08 07:04:00
2:11 AM,39.2,37.4,93,29.99,2.5,Calm,Calm,-,0.00,Rain,Light Rain,0,2012-12-08 07:11:00
2:28 AM,39.2,37.4,93,29.99,2.5,Calm,Calm,-,0.01,Rain,Light Rain,0,2012-12-08 07:28:00
2:53 AM,39.9,37.0,89,29.98,2.0,Calm,Calm,-,0.03,Rain,Light Rain,0,2012-12-08 07:53:00
3:12 AM,39.2,37.4,93,29.98,1.5,Calm,Calm,-,0.04,Rain,Rain,0,2012-12-08 08:12:00
3:33 AM,39.2,37.4,93,29.97,1.8,Calm,Calm,-,0.06,Rain,Light Rain,0,2012-12-08 08:33:00
3:43 AM,39.2,37.4,93,29.96,2.5,Calm,Calm,-,0.07,Rain,Light Rain,0,2012-12-08 08:43:00
3:53 AM,39.9,37.0,89,29.96,2.0,Calm,Calm,-,0.07,Rain,Light Rain,0,2012-12-08 08:53:00
4:13 AM,39.2,37.4,93,29.96,1.8,Calm,Calm,-,0.02,Rain,Light Rain,0,2012-12-08 09:13:00
4:30 AM,39.2,37.4,93,29.96,2.0,Calm,Calm,-,0.03,Rain,Light Rain,0,2012-12-08 09:30:00
4:53 AM,39.9,37.0,89,29.94,1.2,Calm,Calm,-,0.05,Rain,Light Rain,0,2012-12-08 09:53:00
5:00 AM,39.2,37.4,93,29.94,1.8,Calm,Calm,-,0.00,Rain,Light Rain,0,2012-12-08 10:00:00
5:09 AM,39.2,37.4,93,29.94,2.5,NNW,3.5,-,0.00,Rain,Light Rain,330,2012-12-08 10:09:00
5:30 AM,39.2,37.4,93,29.93,2.0,Calm,Calm,-,0.01,,Overcast,0,2012-12-08 10:30:00
5:38 AM,39.2,37.4,93,29.93,2.0,Calm,Calm,-,0.01,,Overcast,0,2012-12-08 10:38:00
5:51 AM,39.2,37.4,93,29.93,3.0,Calm,Calm,-,0.01,,Overcast,0,2012-12-08 10:51:00
6:29 AM,39.2,37.4,93,29.93,2.0,Calm,Calm,-,N/A,,Overcast,0,2012-12-08 11:29:00
6:53 AM,39.9,37.0,89,29.93,2.5,Calm,Calm,-,N/A,,Overcast,0,2012-12-08 11:53:00
7:53 AM,39.9,37.0,89,29.92,1.5,Calm,Calm,-,N/A,,Overcast,0,2012-12-08 12:53:00
8:53 AM,39.9,37.0,89,29.91,1.8,Calm,Calm,-,N/A,,Overcast,0,2012-12-08 13:53:00
9:53 AM,39.9,37.9,93,29.93,1.0,Calm,Calm,-,N/A,,Overcast,0,2012-12-08 14:53:00
10:53 AM,41.0,39.0,93,29.92,1.2,Calm,Calm,-,N/A,,Overcast,0,2012-12-08 15:53:00
11:28 AM,42.8,39.2,87,29.90,2.5,Calm,Calm,-,0.01,,Overcast,0,2012-12-08 16:28:00
11:44 AM,42.8,39.2,87,29.88,1.5,Calm,Calm,-,0.01,,Overcast,0,2012-12-08 16:44:00
11:53 AM,43.0,39.9,89,29.88,1.5,Calm,Calm,-,0.01,,Overcast,0,2012-12-08 16:53:00
12:00 PM,42.8,39.2,87,29.88,5.0,Calm,Calm,-,N/A,,Overcast,0,2012-12-08 17:00:00
12:02 PM,42.8,39.2,87,29.88,1.5,Calm,Calm,-,N/A,,Overcast,0,2012-12-08 17:02:00
12:53 PM,44.1,39.9,85,29.86,1.5,WSW,3.5,-,N/A,,Overcast,240,2012-12-08 17:53:00
1:00 PM,44.6,39.2,81,29.87,5.0,Calm,Calm,-,N/A,,Overcast,0,2012-12-08 18:00:00
1:36 PM,44.6,41.0,87,29.86,5.0,Calm,Calm,-,N/A,,Overcast,0,2012-12-08 18:36:00
1:53 PM,45.0,41.0,86,29.86,5.0,South,3.5,-,N/A,,Overcast,180,2012-12-08 18:53:00
1:55 PM,44.6,41.0,87,29.87,10.0,Calm,Calm,-,N/A,,Overcast,0,2012-12-08 18:55:00
2:53 PM,46.0,42.1,86,29.87,10.0,Calm,Calm,-,N/A,,Overcast,0,2012-12-08 19:53:00
3:53 PM,46.9,42.1,83,29.88,10.0,Calm,Calm,-,N/A,,Overcast,0,2012-12-08 20:53:00
4:15 PM,46.4,42.8,87,29.89,10.0,Calm,Calm,-,N/A,,Overcast,0,2012-12-08 21:15:00
4:53 PM,46.0,42.1,86,29.89,10.0,SSW,3.5,-,N/A,,Overcast,200,2012-12-08 21:53:00
5:01 PM,46.4,42.8,87,29.90,10.0,Calm,Calm,-,N/A,,Overcast,0,2012-12-08 22:01:00
5:57 PM,46.4,42.8,87,29.91,10.0,SSW,3.5,-,N/A,,Scattered Clouds,210,2012-12-08 22:57:00
6:53 PM,46.9,44.1,90,29.91,8.0,Calm,Calm,-,N/A,,Overcast,0,2012-12-08 23:53:00
7:53 PM,46.9,44.1,90,29.93,5.0,Calm,Calm,-,N/A,,Overcast,0,2012-12-09 00:53:00
8:53 PM,46.9,44.1,90,29.94,5.0,Calm,Calm,-,N/A,,Overcast,0,2012-12-09 01:53:00
9:53 PM,46.9,44.1,90,29.95,6.0,Calm,Calm,-,N/A,,Overcast,0,2012-12-09 02:53:00
10:53 PM,46.9,44.1,90,29.97,4.0,Calm,Calm,-,N/A,,Overcast,0,2012-12-09 03:53:00
11:46 PM,46.4,44.6,93,29.98,4.0,SSW,3.5,-,N/A,,Overcast,200,2012-12-09 04:46:00
11:53 PM,46.9,44.1,90,29.98,4.0,Calm,Calm,-,N/A,,Overcast,0,2012-12-09 04:53:00